Weather History for Eldoret, Kenya

Change the Weather History Date:

Thursday, May 15, 2014

  Actual Average Record
Temperature  
Mean Temperature 63 °F -  
Max Temperature 75 °F - - ()
Min Temperature 51 °F - - ()
Degree Days  
Heating Degree Days 2    
Growing Degree Days 13 (Base 50)    
Moisture  
Dew Point 55 °F    
Average Humidity 74    
Maximum Humidity 100    
Minimum Humidity 44    
Precipitation  
Precipitation 0.00 in - - ()
Sea Level Pressure  
Sea Level Pressure 30.20 in    
Wind  
Wind Speed 5 mph ()    
Max Wind Speed 18 mph    
Max Gust Speed -    
Visibility 6.2 miles    
Events      
T = Trace of Precipitation, MM = Missing Value Source: Averaged Metar Reports

Daily Weather History Graph

Daily Weather History Graph

Search for Another Location

Airport:

Trip Planner

Search our weather history database for the weather conditions in past years. The results will help you decide how hot, cold, wet, or windy it might be!

Date:

Astronomy

May. 15, 2014 Rise Set
Actual Time 6:31 AM EAT 6:39 PM EAT
Civil Twilight 6:09 AM EAT 7:01 PM EAT
Nautical Twilight 5:44 AM EAT 7:26 PM EAT
Astronomical Twilight 5:18 AM EAT 7:52 PM EAT
Moon 7:27 PM EAT (5/15) 6:56 AM EAT (5/15)
Length of Visible Light 12h 51m
Length of Day
12h 08m
Full, 100% of the Moon is Illuminated
May 15
Full
May 21
Last Quarter
May 28
New
Jun 5
First Quarter
Jun 13
Full

Hourly Weather History & Observations

Time (EAT) Temp. Dew Point Humidity Pressure Visibility Wind Dir Wind Speed Gust Speed Precip Events Conditions
12:00 AM 57.2 °F 57.2 °F 100% 30.27 in 6.2 mi Calm Calm - N/A   Mostly Cloudy
1:00 AM 57.2 °F 57.2 °F 100% 30.24 in 6.2 mi East 3.5 mph - N/A   Scattered Clouds
2:00 AM 55.4 °F 55.4 °F 100% 30.24 in - Calm Calm - N/A   Clear
3:00 AM 55.4 °F 53.6 °F 94% 30.21 in - Calm Calm - N/A   Clear
4:00 AM 53.6 °F 51.8 °F 94% 30.21 in - SE 4.6 mph - N/A   Clear
5:00 AM 53.6 °F 51.8 °F 94% 30.18 in 6.2 mi East 3.5 mph - N/A   Partly Cloudy
6:00 AM 51.8 °F 50.0 °F 94% 30.21 in - North - - N/A   Partly Cloudy
7:00 AM 53.6 °F 51.8 °F 94% 30.21 in 6.2 mi ENE 6.9 mph - N/A   Partly Cloudy
8:00 AM 59.0 °F 57.2 °F 94% 30.24 in 6.2 mi ESE 4.6 mph - N/A   Partly Cloudy
9:00 AM 64.4 °F 57.2 °F 77% 30.24 in 6.2 mi ENE 11.5 mph - N/A   Partly Cloudy
10:00 AM 69.8 °F 55.4 °F 60% 30.24 in 6.2 mi ENE 12.7 mph - N/A   Scattered Clouds
11:00 AM 71.6 °F 51.8 °F 50% 30.24 in 6.2 mi ENE 9.2 mph - N/A   Scattered Clouds
12:00 PM 73.4 °F 53.6 °F 50% 30.24 in 6.2 mi NE 13.8 mph - N/A   Scattered Clouds
1:00 PM 73.4 °F 53.6 °F 50% 30.21 in 6.2 mi East 4.6 mph - N/A   Mostly Cloudy
2:00 PM 73.4 °F 51.8 °F 47% 30.18 in 6.2 mi NNE 12.7 mph - N/A   Mostly Cloudy
3:00 PM 75.2 °F 66.2 °F 73% 30.18 in 6.2 mi NE 18.4 mph - N/A   Mostly Cloudy
4:00 PM 75.2 °F 57.2 °F 53% - 6.2 mi ENE 6.9 mph - N/A   Mostly Cloudy
5:00 PM 75.2 °F 51.8 °F 44% 30.12 in 6.2 mi ENE 8.1 mph - N/A   Scattered Clouds
6:00 PM 73.4 °F 51.8 °F 47% 30.12 in 6.2 mi NE 9.2 mph - N/A   Scattered Clouds
7:00 PM 69.8 °F 53.6 °F 56% 30.15 in 6.2 mi NE 5.8 mph - N/A   Scattered Clouds
8:00 PM 66.2 °F 55.4 °F 68% 30.18 in 6.2 mi ENE 3.5 mph - N/A   Scattered Clouds
9:00 PM 62.6 °F 55.4 °F 77% 30.18 in 6.2 mi East 4.6 mph - N/A   Mostly Cloudy
10:00 PM 60.8 °F 55.4 °F 82% 30.21 in 6.2 mi East 5.8 mph - N/A   Mostly Cloudy
11:00 PM 60.8 °F 55.4 °F 82% 30.21 in 6.2 mi Calm Calm - N/A   Mostly Cloudy